TimePST,TemperatureF,Dew PointF,Humidity,Sea Level PressureIn,VisibilityMPH,Wind Direction,Wind SpeedMPH,Gust SpeedMPH,PrecipitationIn,Events,Conditions,WindDirDegrees,DateUTC
12:00 AM,-20.9,-27.9,70,30.22,-9999.0,Calm,Calm,-,N/A,,Unknown,0,2012-11-22 08:00:00
1:00 AM,-20.0,-26.9,71,30.23,-9999.0,ENE,1.2,-,N/A,,Unknown,60,2012-11-22 09:00:00
2:00 AM,-21.6,-29.0,69,30.23,-9999.0,ENE,1.2,-,N/A,,Unknown,70,2012-11-22 10:00:00
3:00 AM,-23.3,-30.8,68,30.23,-9999.0,NE,1.2,-,N/A,,Unknown,40,2012-11-22 11:00:00
4:00 AM,-24,-31,54,30.24,,East,1.2,,,,,80,2012-11-22 12:00:00
4:00 AM,-23.6,-31.0,68,30.24,-9999.0,East,1.2,-,N/A,,Unknown,80,2012-11-22 12:00:00
5:00 AM,-24.2,-32.1,66,30.25,-9999.0,NE,2.3,-,N/A,,Unknown,40,2012-11-22 13:00:00
6:00 AM,-26.0,-33.7,67,30.25,-9999.0,ENE,1.2,-,N/A,,Unknown,70,2012-11-22 14:00:00
7:00 AM,-26.0,-33.9,66,30.26,-9999.0,NE,1.2,-,N/A,,Unknown,40,2012-11-22 15:00:00
8:00 AM,-25.4,-33.2,67,30.25,-9999.0,Calm,Calm,-,N/A,,Unknown,0,2012-11-22 16:00:00
9:00 AM,-23.3,-31.0,67,30.24,-9999.0,North,1.2,-,N/A,,Unknown,10,2012-11-22 17:00:00
10:00 AM,-24,-31,52,30.23,,NE,1.2,,,,,50,2012-11-22 18:00:00
10:00 AM,-24.2,-31.4,69,30.23,-9999.0,NE,1.2,-,N/A,,Unknown,50,2012-11-22 18:00:00
11:00 AM,-19.8,-26.7,71,30.22,-9999.0,NNE,1.2,-,N/A,,Unknown,20,2012-11-22 19:00:00
12:00 PM,-16.2,-23.4,70,30.19,-9999.0,Calm,Calm,-,N/A,,Unknown,0,2012-11-22 20:00:00
1:00 PM,-13.4,-20.0,72,30.16,-9999.0,NE,2.3,-,N/A,,Unknown,50,2012-11-22 21:00:00
2:00 PM,-8.9,-14.1,78,30.12,-9999.0,NNE,1.2,-,N/A,,Unknown,20,2012-11-22 22:00:00
3:00 PM,-4.2,-9.0,80,30.08,-9999.0,North,2.3,-,N/A,,Unknown,350,2012-11-22 23:00:00
4:00 PM,-0,-7,58,30.05,,NNE,3.5,,,,,20,2012-11-23 00:00:00
4:00 PM,-0.0,-7.4,71,30.05,-9999.0,NNE,3.5,-,N/A,,Unknown,20,2012-11-23 00:00:00
5:00 PM,0.3,-4.9,79,30.04,-9999.0,NNE,3.5,-,N/A,,Unknown,30,2012-11-23 01:00:00
6:00 PM,2.1,-5.1,72,30.01,-9999.0,NE,1.2,-,N/A,,Unknown,50,2012-11-23 02:00:00
7:00 PM,2.7,-2.6,79,29.99,-9999.0,WNW,1.2,-,N/A,,Unknown,300,2012-11-23 03:00:00
8:00 PM,2.7,-3.3,76,29.98,-9999.0,NW,6.9,-,N/A,,Unknown,320,2012-11-23 04:00:00
9:00 PM,3.2,-2.6,77,29.96,-9999.0,ENE,2.3,-,N/A,,Unknown,60,2012-11-23 05:00:00
10:00 PM,2,-5,61,29.95,,NW,5.8,,,,,310,2012-11-23 06:00:00
10:00 PM,2.5,-4.9,71,29.95,-9999.0,NW,5.8,-,N/A,,Unknown,310,2012-11-23 06:00:00
11:00 PM,2.3,-6.5,67,29.94,-9999.0,NW,6.9,-,N/A,,Unknown,320,2012-11-23 07:00:00